Fountain Dale, PA

1:24 PM EDT on July 22, 2017 (GMT -0400)
Fountain Dale

Weather History for KRYT - August, 2013

Change the Weather History Date:

Thursday, August 1, 2013

  Actual Average (KHGR) Record (KHGR)
Temperature  
Mean Temperature 78 °F -  
Max Temperature 84 °F 82 °F 95 °F (2011)
Min Temperature 71 °F 63 °F 57 °F (1997)
Cooling Degree Days 12    
Growing Degree Days 28 (Base 50)    
Moisture  
Dew Point 65 °F    
Average Humidity 69    
Maximum Humidity 79    
Minimum Humidity 55    
Precipitation  
Precipitation 0.10 in - - ()
Sea Level Pressure  
Sea Level Pressure 29.90 in    
Wind  
Wind Speed 1 mph (WSW)    
Max Wind Speed 7 mph    
Max Gust Speed -    
Visibility 7 miles    
Events Rain    
Averages and records for this station are not official NWS values.
T = Trace of Precipitation, MM = Missing Value Source: NWS Daily Summary

Daily Weather History Graph

Daily Weather History Graph

Search for Another Location

Airport or City:

Trip Planner

Search our weather history database for the weather conditions in past years. The results will help you decide how hot, cold, wet, or windy it might be!

Date:

Astronomy

Aug. 01, 2013 Rise Set
Actual Time 6:08 AM EDT 8:22 PM EDT
Civil Twilight 5:38 AM EDT 8:52 PM EDT
Nautical Twilight 5:01 AM EDT 9:29 PM EDT
Astronomical Twilight 4:21 AM EDT 10:09 PM EDT
Moon 1:43 AM EDT (8/1) 4:29 PM EDT (8/1)
Length of Visible Light 15h 13m
Length of Day
14h 13m
Waning Crescent, 23% of the Moon is Illuminated
Aug 1
Waning Crescent
Aug 6
New
Aug 14
First Quarter
Aug 20
Full
Aug 28
Last Quarter

Hourly Weather History & Observations

Time (EDT) Temp. Heat Index Dew Point Humidity Pressure Visibility Wind Dir Wind Speed Gust Speed Precip Events Conditions
12:17 AM 73.4 °F - 64.4 °F 73% 30.01 in 3.0 mi Calm Calm - N/A   Haze
12:53 AM 72.0 °F - 64.9 °F 78% 29.96 in 3.0 mi Calm Calm - N/A   Haze
1:07 AM 71.6 °F - 64.4 °F 78% 30.00 in 2.5 mi Calm Calm - N/A   Haze
1:16 AM 71.6 °F - 64.4 °F 78% 30.00 in 3.0 mi Calm Calm - N/A   Haze
1:28 AM 73.4 °F - 64.4 °F 73% 30.00 in 4.0 mi Calm Calm - N/A   Haze
1:53 AM 73.0 °F - 66.0 °F 79% 29.95 in 4.0 mi Calm Calm - N/A   Haze
2:11 AM 73.4 °F - 64.4 °F 73% 29.98 in 1.8 mi Calm Calm - 0.02 in Rain Light Rain
2:28 AM 73.4 °F - 64.4 °F 73% 29.97 in 2.0 mi WSW 4.6 mph - 0.05 in Rain Light Rain
2:40 AM 73.4 °F - 64.4 °F 73% 29.97 in 3.0 mi Variable 3.5 mph - 0.06 in Rain Light Rain
2:53 AM 73.0 °F - 64.9 °F 76% 29.92 in 4.0 mi Variable 3.5 mph - 0.06 in Rain Light Rain
3:11 AM 71.6 °F - 64.4 °F 78% 29.96 in 9.0 mi Calm Calm - 0.01 in   Overcast
3:19 AM 71.6 °F - 64.4 °F 78% 29.95 in 5.0 mi Calm Calm - 0.01 in   Haze
3:53 AM 72.0 °F - 64.0 °F 76% 29.91 in 6.0 mi Calm Calm - 0.02 in Rain Light Rain
4:53 AM 72.0 °F - 64.0 °F 76% 29.88 in 5.0 mi Calm Calm - 0.01 in Rain Light Rain
5:24 AM 71.6 °F - 64.4 °F 78% 29.92 in 5.0 mi Calm Calm - 0.00 in   Haze
5:53 AM 72.0 °F - 64.0 °F 76% 29.88 in 6.0 mi Calm Calm - 0.01 in   Haze
6:38 AM 71.6 °F - 64.4 °F 78% 29.92 in 6.0 mi Calm Calm - N/A   Haze
7:05 AM 71.6 °F - 64.4 °F 78% 29.92 in 10.0 mi Calm Calm - N/A   Overcast
7:53 AM 73.0 °F - 64.9 °F 76% 29.88 in 10.0 mi Calm Calm - N/A   Overcast
8:38 AM 73.4 °F - 66.2 °F 78% 29.92 in 10.0 mi Variable 3.5 mph - N/A   Overcast
8:53 AM 73.9 °F - 64.9 °F 73% 29.88 in 10.0 mi SSW 3.5 mph - N/A   Overcast
9:53 AM 75.9 °F - 66.0 °F 71% 29.87 in 10.0 mi Calm Calm - N/A   Overcast
10:30 AM 78.8 °F - 66.2 °F 65% 29.90 in 10.0 mi Calm Calm - N/A   Overcast
10:53 AM 79.0 °F - 66.0 °F 64% 29.86 in 10.0 mi Variable 4.6 mph - N/A   Overcast
11:53 AM 79.0 °F - 64.9 °F 62% 29.85 in 10.0 mi Variable 5.8 mph - N/A   Overcast
12:14 PM 78.8 °F - 64.4 °F 61% 29.89 in 10.0 mi Variable 3.5 mph - N/A   Overcast
12:22 PM 80.6 °F 82.7 °F 66.2 °F 61% 29.88 in 10.0 mi Variable 4.6 mph - N/A   Overcast
12:41 PM 78.8 °F - 64.4 °F 61% 29.88 in 10.0 mi Variable 4.6 mph - N/A   Overcast
1:08 PM 80.6 °F 82.3 °F 64.4 °F 58% 29.88 in 6.0 mi Calm Calm - 0.00 in Rain Light Rain
1:42 PM 80.6 °F 82.7 °F 66.2 °F 61% 29.87 in 10.0 mi Calm Calm - 0.00 in   Overcast
1:53 PM 81.0 °F 82.7 °F 64.9 °F 58% 29.83 in 10.0 mi Variable 5.8 mph - 0.00 in   Overcast
2:31 PM 82.4 °F 84.6 °F 66.2 °F 58% 29.86 in 10.0 mi Variable 6.9 mph - N/A   Mostly Cloudy
2:45 PM 84.2 °F 86.6 °F 66.2 °F 55% 29.86 in 10.0 mi WNW 3.5 mph - N/A   Overcast
3:53 PM 84.0 °F 86.3 °F 66.0 °F 55% 29.81 in 10.0 mi Calm Calm - N/A   Overcast
4:53 PM 82.9 °F 85.0 °F 66.0 °F 56% 29.80 in 10.0 mi Calm Calm - N/A   Scattered Clouds
5:53 PM 84.0 °F 86.3 °F 66.0 °F 55% 29.80 in 10.0 mi Calm Calm - N/A   Clear
6:53 PM 82.0 °F 84.9 °F 68.0 °F 62% 29.80 in 10.0 mi Calm Calm - N/A   Clear
7:53 PM 80.1 °F 82.7 °F 68.0 °F 67% 29.82 in 10.0 mi Calm Calm - N/A   Partly Cloudy
11:53 PM 75.0 °F - 64.0 °F 69% 29.84 in 10.0 mi Calm Calm - N/A   Clear